World > North America > United States > Texas

Walkers Mill, Texas Regional Weather

Lat: 32.59N, Lon: 94.55W
Wx Zone: TXZ138Web Search
Walkers Mill Weather Warning NWS WEATHER ALERT FOR THE WALKERS MILL, TX AREA - Issued: 1238 PM CDT Thu Apr 15 2021 Walkers Mill Weather Warning  

Helpful Tip: You can add this page to Bookmarks by pressing the Ctrl key & d key at the same time. Mac users press command & d.

Feedback


°F Click to change Walkers Mill hourly weather to Imperial units.Click to change Walkers Mill hourly weather to Metric units. °C
Walkers Mill Weather Map
UTC Time: 4/16/2021, 09:12
Your Time:

Walkers Mill, TX Regional Weather

Expires:202104161000;;633334
ASUS44 KFWD 160910
RWRTX 
NORTH TEXAS HOURLY WEATHER ROUNDUP
NATIONAL WEATHER SERVICE FORT WORTH TX
400 AM CDT FRI APR 16 2021

NOTE: "FAIR" INDICATES FEW OR NO CLOUDS BELOW 12,000 FEET WITH NO
SIGNIFICANT WEATHER AND/OR OBSTRUCTIONS TO VISIBILITY.


TXZ095>097-106>112-122>126-135>138-148>153-164>167-161000-
EAST TEXAS
  
CITY           SKY/WX    TMP DP  RH WIND       PRES   REMARKS
PARIS          MOCLDY    54  52  93 E7        29.90S                  
SULPHUR SPRNGS FAIR      56  56 100 E7        29.89F                  
GILMER         DRIZZLE   55  54  97 CALM      29.90F                  
MINEOLA        MOCLDY    55  55 100 CALM      29.87S                  
TYLER          CLOUDY    57  54  89 E14       29.82F                  
LONGVIEW       LGT RAIN  57  55  93 E6        29.90R                  
MARSHALL       CLOUDY    55  53  92 CALM      29.95R                  
ATHENS         CLOUDY    55  55 100 SE5       29.85F                  
PALESTINE      CLOUDY    57  57 100 SE13      29.86F                  
JACKSONVILLE   TSTM      56  56  99 CALM      29.94R                  
HENDERSON      RAIN      56  55  94 E6        29.90S                  
CENTER         LGT RAIN  57  54  88 E5        29.90R                  
NACOGDOCHES    MOCLDY    57  56  96 E6        29.87F                  
LUFKIN         LGT RAIN  58  57  97 E6        29.86R                  
$$

SUPPLEMENTAL OBSERVATIONS (NWS FORT WORTH AREA)
  
CITY           SKY/WX    TMP DP  RH WIND       PRES   REMARKS
CADDO GRASSLND   N/A     54  52  94 NE2         N/A                   
LBJ GRASSLAND    N/A     55  54  94 E6          N/A                   
POSSUM KINGDOM   N/A     55  54  94 SE7         N/A                   
GRANBURY         N/A     57  55  94 E6          N/A                   
MCGREGOR         N/A     61  59  94 E5G13       N/A                   
TEMPLE           N/A     61  59  94 E6          N/A                   
PALESTINE        N/A     57  54  88 NE8G18      N/A                   
$$

SUPPLEMENTAL OBSERVATIONS (NWS NORMAN AREA)
  
CITY           SKY/WX    TMP DP  RH WIND       PRES   REMARKS
GOODLETT         N/A     48  47  97 N12       29.89R                  
ODELL            N/A     49  49  99 NE7       29.87S                  
CROWELL          N/A     50  50 100 E6        29.85F                  
KNOX CITY        N/A     52  52  99 CALM      29.83F                  
SEYMOUR          N/A     52  51  97 E3        29.84F                  
MILLERS CREEK    N/A     54  52  94 E3          N/A                   
$$

SUPPLEMENTAL OBSERVATIONS (NWS SAN ANGELO AREA)
  
CITY           SKY/WX    TMP DP  RH WIND       PRES   REMARKS
WEINERT          N/A     53  52  97 E5        29.83F                  
HASKELL          N/A     53  52  97 E5        29.82F                  
THROCKMORTON     N/A     54  54 100 CALM      29.84S                  
STAMFORD         N/A     54  54 100 SE8       29.83F                  
CLYDE            N/A     54  54 100 SE7       29.83F                  
HAMBY            N/A     54  52  94 E3          N/A                   
$$

SUPPLEMENTAL OBSERVATIONS (NWS SHREVEPORT AREA)
  
CITY           SKY/WX    TMP DP  RH WIND       PRES   REMARKS
TEXARKANA        N/A     54  50  87 SE1         N/A                   
LUFKIN           N/A     57  54  88 MISG        N/A                   
N SABINE NF      N/A     55  52  88 MISG        N/A                   
$$

SUPPLEMENTAL OBSERVATIONS ARE A COLLECTION OF AUTOMATED INSTRUMENTS
THAT ARE MAINTAINED BY A VARIETY OF FEDERAL AND STATE AGENCIES. 
CERTAIN ELEMENTS...SUCH AS HUMIDITY VALUES AND SUSTAINED WIND 
SPEEDS...MAY BE APPROXIMATED.

  

SKY/WX - Weather  TMP - Temperature  DP - Dew Point  RH - Relative Humidity
WIND - Wind Direction/Speed PRES - Barometric Pressure VSB - Visibility
WCI - Wind Chill Index E13G22 Wind - East Wind 13 mph/Gusts of 22 mph